Погода Гышгы

Погода Гышгы : погода сейчас, прогноз погоды и архив. Всё, что Вы хотите узнать о погоде Гышгы!

Поиск расширенной информации на нашем сайте:

Другие новости

Новости СМИ2

Главная страница сайта

Новости сайта

02.10.2013

Напоминаем, что на нашем новом сайте вы можете получить высокодетализированные прогнозы погоды по пунктам России, СНГ и мира (включающие важные для авиации метеовеличины, такие как направление и скорость ветра, видимость, явления погоды, количество и форма облачности, нижняя и верхняя граница облачности), а также ознакомиться с разнообразными материалами по авиационной метеорологии и подборкой полезных ссылок на эту тему.

Сайт Метеоцентр.Азия посвящён разработке технологий оптимизации авиаметеорологического обслуживания, включая проектирование и перспективное создание нескольких автоматизированных авиаметеорологических систем:
- система выпуска высокодетальных прогностических карт явлений погоды для нижнего воздушного пространства по России и ближнему зарубежью;
- система верификации прогнозов TAF (выпускаемых синоптиками официальных АМСГ РФ и ближнего зарубежья) и AUTOTAF (выпускаемых сайтом Метеоцентр.Азия) - выявление ошибок, онлайн-сопоставление с фактической погодой METAR, автоматическое внесение коррективов в прогнозы при резком отклонении фактической погоды от прогноза, подсчёт оправдываемости прогнозов по элементам и в целом;
- система обработки, анализа и отображения авиаметеорологической информации для применения провайдерами метеорологической информации.

Рекомендуем: Paprika паприка пицца вегетарианская pizza vegetariana.

Погода Гышгы - сегодня

Время (UTC), дата Ветер
(°,м/с) 
Видим.   Явления Облачность Т
(°С)
Тd
(°С)
f(%) Тe
(°С)
Pmin
(гПа)
dP
(гПа)
Po
(мм)
O2
(г/м3)
Тmin Tmax R s Состояние
почвы
15 16.01.17 300 (СЗ) 4000 м    5/0 средняя 
[Ac As]
+1.2 -2.3 77 +2  1025.6  1.6  712  286    +3       
18 16.01.17 тихо ()   4000 м    ясно 
-0.2 -2.6 84 -0  1026.9  0.8  713  288    +3       
21 16.01.17 тихо ()   4000 м    4/0 верхняя 
[Ci sp]
-1.8 -3.7 87 -2  1027.7  0.3  713  289           
00 17.01.17 240 (ЮЗ) 4000 м    3/0 верхняя 
[Ci sp]
-1.9 -3.5 89 -1  1028.5  0.6  713  290           
03 17.01.17 230 (ЮЗ) 4000 м    4/0 средняя 
[Ac As]
-1.8 -3 91 -1  1028.7  0.4  714  290           
06 17.01.17 260 (З) 4000 м    9/0 верхняя 
[Ci sp]
+0.9 -2.3 79 +2  1029.5  1.3  715  287  -2         
09 17.01.17 080 (В) 4000 м    5/0 верхняя 
[Ci sp]
+5.5 -0.3 66 +5  1026.2  -1.8  713  282           
12 17.01.17 070 (В) 4000 м    5/0 верхняя 
[Ci sp]
+6 +1.5 73 +6  1025.2  -0.7  713  281           
15 17.01.17 020 (С) 4000 м    9/0 средняя 
[Ac As]
+3.4 +1.1 85 +4  1027.3  1.2  714  284    +6.1       
18 17.01.17 150 (ЮВ) 4000 м    9/0 средняя 
[Ac As]
+1.2 -0.8 86 +2  1029.3  1.3  715  287    +6.1       
21 17.01.17 220 (ЮЗ) 4000 м    3/0 верхняя 
[Ci fib]
+0 -1.5 90 +1  1029.3  -0.4  714  288           
00 18.01.17 210 (ЮЗ) 4000 м    ясно 
-1 -2.2 92 1029.6  714  289           
03 18.01.17 010 (С) 4000 м    ясно 
-1.8 -2.6 94 -1  1031.5  0.7  715  290           
06 18.01.17 270 (З) 4000 м    ясно 
+2.2 -2.8 69 +3  1030  0.6  715  286  -2         
09 18.01.17 050 (СВ) 4000 м    ясно 
+7.1 +1.9 69 +8  1027.2  -1.3  714  280           
12 18.01.17 060 (СВ) 4000 м    ясно 
+8.1 +2.1 66 +9  1025.9  -0.9  714  279           
15 18.01.17 тихо ()   4000 м    ясно 
+3.7 +1.7 87 +4  1027.8  0.6  714  283    +8.4       
18 18.01.17 240 (ЮЗ) 4000 м    ясно 
+1.5 +0.4 92 +2  1028.8  0.2  714  286    +8.4       
21 18.01.17 тихо ()   4000 м    9/0 верхняя 
[Ci sp]
+1.4 +0.3 92 +1  1027.7  -1  713  286           
00 19.01.17 тихо ()   4000 м    9/0 верхняя 
[Ci sp]
+0.5 -0.3 94 +1  1027.9  -0.1  713  287           
03 19.01.17 240 (ЮЗ) 4000 м    8/0 верхняя 
[Ci fib]
+0.8 -0.9 88 +1  1027.6  -0.1  713  287           
06 19.01.17 тихо ()   4000 м    3/0 средняя 
[Ac lent]
+6.3 +0.7 67 +6  1026.9  0.8  714  281  +0.4         
09 19.01.17 070 (В) 4000 м    4/0 верхняя 
[Ci sp]
+12.4 +2.5 51 +14  1023.5  -1.7  713  274           
12 19.01.17 180 (Ю) 4000 м    6/0 средняя, верхняя 
[Ac lent|Ci sp]
+15.8 -0.9 32 +16  1021.6  -0.9  712  271           
15 19.01.17 190 (Ю) 4000 м    ясно 
+8.2 +2.3 66 +9  1024.6  713  278    +16.3       
Время (UTC), дата Ветер
(°,м/с) 
Видим.   Явления Облачность Т
(°С)
Тd
(°С)
f(%) Тe
(°С)
Pmin
(гПа)
dP
(гПа)
Po
(мм)
O2
(г/м3)
Тmin Tmax R s Состояние
почвы

Для получения пояснительной информации подведите курсор к названию столбца.

ПОГОДА Гышгы - архив

Всё, что Вы хотите узнать о погоде Гышгы - удобно и подробно!

Выберите нужную дату (начиная с 1 января 2015* года) и нажмите кнопку "Найти".
Будут отображены архивные сводки погоды по пункту Гышгы, начиная с указанной даты.


Отображать данные в формате CSV (для использования в таблицах Excel)


Внимание! Наш архив погоды предназначен исключительно для личного некоммерческого использования в познавательных целях. Если Вам необходимы официальные справки о состоянии погоды (для производственных, юридических, коммерческих и т.п. целей), обращайтесь в органы Росгидромета.

*Примечание: данная дата относится к архиву по метеостанциям СССР (Россия, СНГ, Балтия).
Архив по метеостанциям Зарубежной Европы и Азии (кроме Китая) хранится 10 дней, по другим регионам земного шара (Китай, Африка, Америка, Австралия, Океания) - 1 день.

Гышгы - район местоположения метеостанции


Название, широта, долгота, высота метеостанции:
Гышгы (Кушка) 35.3°ш. 62.3°д. 625 м над ур. моря [Туркменистан]

Дополнительная информация

В oтличие oт бoльшинства пoгoдных сайтoв мы публикуем пoдрoбную метеoинфoрмацию в детальнoм прoфессиoнальнoм фoрмате.

Характеристики температуры и влажнoсти вoздуха измеряются на высoте 2 м в тени вдали oт зданий и деревьев.
Скoрoсть ветра измеряется на высoте 10 м (на урoвне рoста челoвека скoрoсть ветра ниже в 1.5-2 раза). Если метеoстанция нахoдится в гoрoде или в лесу, тo скoрoсть ветра занижена на 2-4 м/с пo сравнению с oткрытым местoм. Скoрoсть ветра над акватoриями крупных рек и oзёр, а также на вершинах хoлмoв на 2-5 м/с выше, чем в oбычных услoвиях.
Атмoсфернoе давление в разных тoчках местнoсти мoжет значительнo oтличаться oт давления на метеoстанции, в зависимoсти oт услoвий рельефа (при пoдъёме на 10 м давление пoнижается примернo на 1 мм рт.ст.).